• In Deutschland
  • Länderverzeichnis
  • Für 7 Tage
  • Wassertemperatur
  • Satellitenkarten
  • Wetterkarte
  • Widgets
  • user-avatar
    Anmelden

    Stündliche Wetter Dessau

    Heute, 12 Dezember, Dienstag

    Zeit Temperatur Niederschläge Wind Luftdruck Luftfeuchtigkeit
    00:00 +5°C° 0,3 mm 5 m/S 734 mmHg 86%
    01:00 +5°C° 0 mm 4 m/S 734 mmHg 85%
    02:00 +5°C° 0 mm 5 m/S 734 mmHg 83%
    03:00 +5°C° 0 mm 5 m/S 735 mmHg 81%
    04:00 +4°C° 0 mm 6 m/S 735 mmHg 79%
    05:00 +4°C° 0 mm 6 m/S 736 mmHg 79%
    06:00 +3°C° 0 mm 7 m/S 737 mmHg 78%
    07:00 +3°C° 0 mm 7 m/S 738 mmHg 78%
    08:00 +3°C° 0 mm 7 m/S 739 mmHg 77%
    09:00 +1°C° 0 mm 8 m/S 740 mmHg 76%
    10:00 +1°C° 0 mm 9 m/S 742 mmHg 75%
    11:00 +1°C° 0 mm 9 m/S 743 mmHg 72%
    12:00 +1°C° 0 mm 9 m/S 744 mmHg 69%
    13:00 +1°C° 0 mm 9 m/S 746 mmHg 66%
    14:00 +1°C° 0 mm 9 m/S 746 mmHg 68%
    15:00 +1°C° 0 mm 8 m/S 747 mmHg 69%
    16:00 0°C° 0 mm 8 m/S 748 mmHg 70%
    17:00 0°C° 0,1 mm 7 m/S 749 mmHg 73%
    18:00 0°C° 0,1 mm 7 m/S 750 mmHg 76%
    19:00 +1°C° 0,1 mm 6 m/S 751 mmHg 79%
    20:00 +1°C° 0 mm 5 m/S 752 mmHg 81%
    21:00 0°C° 0 mm 5 m/S 753 mmHg 83%
    22:00 0°C° 0 mm 4 m/S 754 mmHg 85%
    23:00 -1°C° 0 mm 4 m/S 754 mmHg 86%

    Morgen, 13 Dezember, Mittwoch

    Zeit Temperatur Niederschläge Wind Luftdruck Luftfeuchtigkeit
    00:00 -1°C° 0 mm 4 m/S 755 mmHg 86%
    01:00 -1°C° 0 mm 4 m/S 755 mmHg 87%
    02:00 -1°C° 0 mm 4 m/S 755 mmHg 86%
    03:00 -1°C° 0 mm 4 m/S 755 mmHg 85%
    04:00 -2°C° 0 mm 4 m/S 755 mmHg 85%
    05:00 -2°C° 0 mm 5 m/S 755 mmHg 84%
    06:00 -2°C° 0 mm 5 m/S 755 mmHg 84%
    07:00 -2°C° 0 mm 5 m/S 754 mmHg 83%
    08:00 -1°C° 0 mm 5 m/S 754 mmHg 81%
    09:00 -2°C° 0 mm 6 m/S 754 mmHg 78%
    10:00 -1°C° 0 mm 6 m/S 754 mmHg 76%
    11:00 0°C° 0 mm 7 m/S 753 mmHg 73%
    12:00 0°C° 0 mm 7 m/S 752 mmHg 71%
    13:00 +2°C° 0 mm 7 m/S 751 mmHg 68%
    14:00 +2°C° 0,2 mm 7 m/S 750 mmHg 70%
    15:00 +2°C° 0,2 mm 7 m/S 749 mmHg 71%
    16:00 +2°C° 0,2 mm 7 m/S 748 mmHg 73%
    17:00 +2°C° 0,4 mm 7 m/S 747 mmHg 74%
    18:00 +2°C° 0,4 mm 7 m/S 746 mmHg 76%
    19:00 +2°C° 0,4 mm 7 m/S 746 mmHg 78%
    20:00 +2°C° 0,4 mm 7 m/S 745 mmHg 78%
    21:00 +2°C° 0,4 mm 7 m/S 744 mmHg 79%
    22:00 +3°C° 0,4 mm 7 m/S 743 mmHg 80%
    23:00 +3°C° 0,3 mm 7 m/S 741 mmHg 80%

    übermorgen, 14 Dezember, Donnerstag

    Zeit Temperatur Niederschläge Wind Luftdruck Luftfeuchtigkeit
    00:00 +2°C° 0,3 mm 8 m/S 740 mmHg 80%
    01:00 +4°C° 0,3 mm 8 m/S 739 mmHg 80%
    02:00 +4°C° 0,5 mm 7 m/S 739 mmHg 80%
    03:00 +3°C° 0,5 mm 6 m/S 739 mmHg 81%
    04:00 +3°C° 0,5 mm 5 m/S 739 mmHg 81%
    05:00 +3°C° 0 mm 6 m/S 739 mmHg 80%
    06:00 +2°C° 0 mm 6 m/S 738 mmHg 79%
    07:00 +2°C° 0 mm 6 m/S 738 mmHg 79%
    08:00 +1°C° 0,1 mm 8 m/S 738 mmHg 73%
    09:00 +1°C° 0,1 mm 10 m/S 738 mmHg 67%
    10:00 0°C° 0,1 mm 12 m/S 739 mmHg 61%
    11:00 +1°C° 0 mm 11 m/S 739 mmHg 60%
    12:00 +1°C° 0 mm 10 m/S 740 mmHg 60%
    13:00 +2°C° 0 mm 10 m/S 741 mmHg 59%
    14:00 +1°C° 0 mm 8 m/S 741 mmHg 63%
    15:00 +1°C° 0 mm 6 m/S 741 mmHg 66%
    16:00 +1°C° 0 mm 5 m/S 741 mmHg 69%
    17:00 0°C° 0 mm 5 m/S 740 mmHg 71%
    18:00 0°C° 0 mm 5 m/S 740 mmHg 73%
    19:00 0°C° 0 mm 5 m/S 739 mmHg 75%
    20:00 0°C° 0,1 mm 4 m/S 738 mmHg 78%
    21:00 0°C° 0,1 mm 4 m/S 738 mmHg 80%
    22:00 +2°C° 0,1 mm 3 m/S 737 mmHg 83%
    23:00 +1°C° 1,6 mm 4 m/S 737 mmHg 85%

    15 Dezember, Freitag

    Zeit Temperatur Niederschläge Wind Luftdruck Luftfeuchtigkeit
    00:00 +1°C° 1,6 mm 5 m/S 737 mmHg 87%
    01:00 +1°C° 1,6 mm 5 m/S 736 mmHg 88%
    02:00 0°C° 0,6 mm 5 m/S 737 mmHg 88%
    03:00 -1°C° 0,6 mm 6 m/S 737 mmHg 87%
    04:00 -1°C° 0,6 mm 6 m/S 738 mmHg 86%
    05:00 -1°C° 0 mm 5 m/S 739 mmHg 86%
    06:00 -1°C° 0 mm 5 m/S 739 mmHg 86%
    07:00 -2°C° 0 mm 4 m/S 740 mmHg 87%
    08:00 -2°C° 0 mm 4 m/S 740 mmHg 86%
    09:00 -1°C° 0 mm 4 m/S 740 mmHg 86%
    10:00 -1°C° 0 mm 4 m/S 741 mmHg 86%
    11:00 0°C° 0,1 mm 4 m/S 740 mmHg 86%
    12:00 +1°C° 0,1 mm 4 m/S 740 mmHg 86%
    13:00 +1°C° 0,1 mm 4 m/S 740 mmHg 87%
    14:00 +1°C° 0,1 mm 4 m/S 740 mmHg 87%
    15:00 +1°C° 0,1 mm 4 m/S 740 mmHg 87%
    16:00 +1°C° 0,1 mm 4 m/S 740 mmHg 87%
    17:00 +1°C° 0,1 mm 4 m/S 740 mmHg 88%
    18:00 +1°C° 0,1 mm 3 m/S 740 mmHg 89%
    19:00 +1°C° 0,1 mm 3 m/S 741 mmHg 90%
    20:00 +1°C° 0 mm 3 m/S 741 mmHg 91%
    21:00 +1°C° 0 mm 3 m/S 742 mmHg 91%
    22:00 +1°C° 0 mm 3 m/S 742 mmHg 91%
    23:00 -1°C° 0 mm 4 m/S 743 mmHg 92%

    16 Dezember, Samstag

    Zeit Temperatur Niederschläge Wind Luftdruck Luftfeuchtigkeit
    00:00 -1°C° 0 mm 4 m/S 743 mmHg 92%
    01:00 -2°C° 0 mm 4 m/S 743 mmHg 92%
    02:00 -2°C° 0 mm 4 m/S 744 mmHg 91%
    03:00 -2°C° 0 mm 4 m/S 744 mmHg 91%
    04:00 -2°C° 0 mm 4 m/S 745 mmHg 91%
    05:00 -1°C° 0,1 mm 5 m/S 745 mmHg 90%
    06:00 -1°C° 0,1 mm 5 m/S 746 mmHg 90%
    07:00 -1°C° 0,1 mm 5 m/S 746 mmHg 90%
    08:00 -1°C° 0 mm 5 m/S 747 mmHg 89%
    09:00 0°C° 0 mm 5 m/S 747 mmHg 88%
    10:00 0°C° 0 mm 5 m/S 748 mmHg 87%
    11:00 0°C° 0 mm 5 m/S 748 mmHg 86%
    12:00 0°C° 0 mm 5 m/S 748 mmHg 86%
    13:00 +1°C° 0 mm 5 m/S 749 mmHg 85%
    14:00 0°C° 0 mm 5 m/S 749 mmHg 86%
    15:00 0°C° 0 mm 5 m/S 749 mmHg 87%
    16:00 0°C° 0 mm 4 m/S 749 mmHg 87%
    17:00 0°C° 0 mm 4 m/S 750 mmHg 87%
    18:00 -1°C° 0 mm 4 m/S 750 mmHg 87%
    19:00 -1°C° 0 mm 5 m/S 750 mmHg 87%
    20:00 -1°C° 0 mm 5 m/S 751 mmHg 87%
    21:00 -1°C° 0 mm 5 m/S 751 mmHg 87%
    22:00 -1°C° 0 mm 5 m/S 751 mmHg 87%
    23:00 -2°C° 0 mm 5 m/S 752 mmHg 87%

    17 Dezember, Sonntag

    Zeit Temperatur Niederschläge Wind Luftdruck Luftfeuchtigkeit
    00:00 -2°C° 0 mm 5 m/S 752 mmHg 87%
    01:00 -2°C° 0 mm 5 m/S 752 mmHg 87%
    02:00 -2°C° 0 mm 5 m/S 753 mmHg 87%
    03:00 -2°C° 0 mm 5 m/S 753 mmHg 87%
    04:00 -2°C° 0 mm 5 m/S 753 mmHg 87%
    05:00 -2°C° 0 mm 5 m/S 754 mmHg 88%
    06:00 -2°C° 0 mm 5 m/S 754 mmHg 88%
    07:00 -2°C° 0 mm 5 m/S 755 mmHg 89%
    08:00 -2°C° 0 mm 5 m/S 755 mmHg 88%
    09:00 -1°C° 0 mm 5 m/S 756 mmHg 88%
    10:00 -1°C° 0 mm 5 m/S 756 mmHg 88%
    11:00 -1°C° 0 mm 5 m/S 757 mmHg 87%
    12:00 0°C° 0 mm 5 m/S 757 mmHg 86%
    13:00 0°C° 0 mm 5 m/S 757 mmHg 85%
    14:00 0°C° 0 mm 5 m/S 757 mmHg 87%
    15:00 0°C° 0 mm 4 m/S 758 mmHg 88%
    16:00 -1°C° 0 mm 4 m/S 758 mmHg 89%
    17:00 -1°C° 0 mm 4 m/S 759 mmHg 90%
    18:00 -1°C° 0 mm 4 m/S 760 mmHg 90%
    19:00 -2°C° 0 mm 4 m/S 760 mmHg 91%
    20:00 -2°C° 0 mm 4 m/S 760 mmHg 91%
    21:00 -1°C° 0 mm 3 m/S 761 mmHg 92%
    22:00 -1°C° 0 mm 3 m/S 761 mmHg 93%
    23:00 -2°C° 0 mm 3 m/S 762 mmHg 93%
    Mehr zeigen